SCP
0 1 1 0 0 0 0 1 0 0 0 0 1 0 0 1 0 0 0 0 0 0 0 0 0 0 0 0 0 0 0 0 0 0 0 0 0 0
1 1 1 1 1 1 1 1 1 0 1 0 0 0 0 0 1 1 0 0 0 0 0 0 0 0 0 0 0 0 0 0 0 0 0 0 0 0
2 1 1 1 2 2 2 1 1 2 1 0 0 0 2 2 1 1 1 1 0 0 0 0 0 0 0 0 0 0 0 0 0 0 0 0 0 0
1 0 0 0 1 1 1 1 2 2 1 1 1 1 2 0 1 1 1 1 1 0 0 0 0 0 0 0 0 0 0 0 0 0 0 0 0 0
0 0 0 0 0 0 1 1 1 1 2 1 1 1 1 0 0 1 1 1 1 0 0 0 0 0 0 0 0 0 0 0 0 0 0 0 0 0
0 0 0 0 0 0 0 0 0 0 1 1 1 0 0 0 0 0 0 1 1 0 1 1 0 0 0 0 0 0 0 0 0 0 0 0 0 0
0 0 0 0 0 0 0 0 0 0 0 0 0 0 0 0 1 1 0 0 0 1 1 1 1 1 1 0 0 0 0 0 0 0 0 0 0 0
0 0 0 0 0 0 0 0 0 0 0 0 0 0 0 1 1 0 0 0 0 1 1 1 1 1 0 0 0 0 0 0 0 0 0 0 0 0
0 0 0 0 0 0 0 0 0 0 0 0 0 0 0 0 0 0 0 0 0 0 0 0 0 0 0 0 0 0 0 0 0 -0 -0 0 0 0
0 -0 0 0 -0 0 0 0 0 0 0 0 0 0 0 0 0 0 0 0 0 0 0 0 0 0 0 0 0 0 0 0 0 0 0 0 0 0
0 0 0 0 -0 -0 0 0 0 0 0 0 0 0 0 0 0 0 0 0 0 0 0 0 0 0 0 0 0 0 0 0 0 0 0 0 0 0
0 0 0 0 0 -0 0 0 0 0 0 0 0 0 0 0 0 0 0 0 0 0 0 0 0 0 0 0 0 0 0 0 0 0 0 0 0 0
0 0 0 0 0 0 0 0 0 0 0 0 0 0 0 0 0 0 0 0 0 0 0 0 0 0 0 0 0 0 0 0 0 0 -0 -0 -0 -0
0 0 0 0 0 0 0 0 0 0 0 0 0 0 0 0 0 0 0 0 0 0 0 0 0 0 0 0 0 0 0 0 0 -0 -0 -0 -0 -0
0 0 0 0 0 0 0 0 0 0 0 0 0 0 0 0 0 0 0 0 0 0 0 0 0 0 0 0 0 0 0 -0 -0 -0 -0 -0 -0 -0
0 0 0 0 0 0 0 0 0 0 0 0 0 0 0 0 0 0 0 0 0 0 0 0 0 0 -0 -0 0 0 -0 -0 -0 0 0 0 0 0
-0 0 0 0 0 0 0 0 0 0 0 0 0 0 0 0 0 0 0 0 0 0 0 0 0 0 -0 -0 -0 -0 -0 -0 -0 -0 -0 0 0 0
0 0 0 0 0 0 0 0 0 0 0 0 0 0 0 0 0 0 0 0 0 0 0 0 0 0 0 0 0 0 -0 -0 -0 0 0 0 0 -0
0 0 0 0 0 0 0 0 0 0 0 0 0 0 0 0 0 0 0 0 0 0 0 0 0 0 0 0 -0 -0 -0 0 0 0 -0 -0 0 0
0 0 0 0 0 0 0 0 0 0 0 0 0 0 0 0 0 0 0 0 0 0 0 0 0 0 0 0 0 0 0 -0 0 0 -0 -0 0 0
0 0 0 0 0 0 0 0 0 0 0 0 0 0 0 0 0 0 0 0 0 0 0 0 0 -0 0 0 0 0 0 -0 -0 -0 -0 -0 0 -0
0 0 0 0 0 0 0 0 0 0 0 0 0 0 0 0 0 0 0 0 0 0 0 0 0 0 0 0 0 0 0 -0 -0 0 0 0 -0 -0
0 0 0 0 0 0 0 0 0 0 0 0 0 0 0 0 0 0 0 0 0 0 0 0 0 0 0 0 0 0 0 0 -0 -0 -0 -0 0 -0
Wind_Speed_500mb
24 29 26 21 30 26 25 28 29 38 45 41 38 17 15 26 22 24 27 36 43 42 49 53 51 50 50 52 54 58 60 61 64 66 63 58 61 60
26 32 34 34 39 41 37 38 35 36 45 46 45 28 16 20 12 25 31 36 45 49 47 51 56 55 54 53 54 55 57 59 58 63 66 60 59 52
29 28 28 31 35 38 39 38 34 37 44 40 33 35 26 29 28 32 31 36 36 47 51 44 48 59 53 56 55 56 57 60 60 57 65 62 55 53
16 23 24 24 31 35 35 39 42 41 44 44 42 43 27 44 43 54 44 47 45 51 57 51 50 54 53 61 60 58 57 58 63 61 63 62 54 53
27 29 27 29 33 33 40 33 29 30 36 37 39 40 47 53 55 53 53 51 52 54 55 53 52 56 58 57 62 63 65 66 67 72 66 58 56 51
23 20 25 30 32 34 31 31 32 38 39 39 40 47 43 45 57 61 50 34 35 36 43 46 52 53 52 60 62 70 74 71 68 64 65 60 65 65
17 14 15 23 24 26 31 29 25 32 33 32 36 35 36 36 34 35 39 41 42 45 48 48 44 48 51 54 57 64 67 68 62 61 84 92 81 78
12 14 14 15 13 14 16 24 30 32 32 28 33 32 31 33 33 39 36 37 40 35 41 36 39 38 46 47 40 41 47 54 57 79 102 95 85 72
14 16 17 18 15 16 19 19 20 21 21 21 23 26 30 29 35 39 36 36 38 40 40 38 37 41 45 38 34 38 39 44 69 100 96 80 68 62
11 8 7 14 18 14 8 13 14 13 19 19 18 24 27 29 28 26 29 31 31 28 23 29 34 36 36 36 34 28 23 53 84 70 66 57 56 56
24 27 23 24 25 20 22 24 14 14 17 20 23 22 24 25 25 23 23 26 30 27 27 27 27 25 17 16 7 8 51 66 40 45 61 60 57 45
22 30 26 25 25 24 19 14 14 14 17 21 27 22 25 21 18 17 19 19 22 17 18 20 30 27 16 24 33 40 32 29 54 60 60 56 48 41
15 10 21 22 24 25 25 23 16 17 16 17 17 18 20 23 22 24 25 22 25 21 25 23 29 26 19 39 33 34 48 65 62 59 52 48 42 33
11 12 20 23 27 33 35 30 25 18 15 10 13 22 20 23 26 32 35 24 27 33 34 15 18 24 32 47 53 56 56 57 57 50 47 41 34 32
18 33 31 35 30 30 26 31 28 22 13 15 17 17 18 23 24 26 28 29 27 38 40 28 15 15 27 56 62 66 52 42 46 41 38 33 32 29
19 24 25 25 17 18 31 19 19 16 17 14 16 21 22 15 16 19 26 26 35 38 42 50 41 13 28 36 51 55 43 30 42 35 33 33 30 26
11 12 19 20 21 19 16 19 15 16 15 16 15 18 21 23 21 22 19 23 29 30 30 37 32 29 35 42 49 42 42 32 34 38 40 31 26 18
10 12 15 18 17 16 19 18 12 13 14 11 14 15 18 17 18 16 22 24 24 25 22 23 20 26 28 29 22 35 33 29 39 40 36 20 20 16
13 3 11 12 19 21 17 17 19 12 14 7 7 10 10 11 15 22 21 16 21 24 27 22 19 20 25 27 26 21 28 35 38 40 29 19 20 17
18 9 11 19 19 16 14 16 17 13 9 8 8 8 10 8 9 15 13 16 17 15 16 18 13 15 23 28 26 26 31 33 36 30 22 16 13 17
15 17 11 19 13 12 18 23 13 13 6 5 7 6 6 6 8 9 13 7 9 9 13 15 17 20 18 22 23 20 20 19 21 19 15 15 11 13
14 16 14 17 16 15 16 21 13 13 10 6 6 5 6 5 4 3 8 3 9 9 13 11 11 12 16 14 13 11 13 9 12 15 23 20 16 17
11 14 15 16 10 7 10 7 15 10 10 7 6 4 6 2 3 1 6 1 6 7 6 8 9 19 11 10 10 14 9 9 9 9 18 26 28 16
Wind_Direction_500mb
265 270 263 271 264 270 260 263 264 273 278 285 261 278 257 209 245 260 262 261 270 267 260 256 255 255 254 252 251 251 252 255 256 252 246 245 246 250
266 267 267 261 262 265 266 258 256 260 270 279 302 287 294 272 239 273 275 260 261 268 267 262 257 254 254 253 254 254 254 255 258 253 243 243 242 247
281 277 278 280 279 274 265 262 251 251 257 269 282 303 310 294 290 273 266 273 269 275 276 277 273 266 260 258 257 257 258 255 254 251 242 239 239 237
262 281 285 280 276 285 278 266 260 256 259 269 271 278 298 305 289 280 273 257 258 274 268 269 268 262 263 260 259 259 261 260 255 250 238 232 233 227
284 281 278 274 275 270 262 266 266 262 262 266 273 273 264 279 299 295 285 279 274 262 272 263 264 268 260 262 260 256 261 264 261 247 230 223 214 191
280 282 287 286 285 269 259 267 278 274 275 276 276 269 274 290 291 286 284 286 277 263 258 258 262 261 265 265 261 255 257 259 259 263 215 212 179 177
321 309 304 293 302 277 263 270 282 293 289 278 280 281 280 283 284 286 289 288 286 283 279 276 278 274 277 277 266 260 258 255 253 260 203 188 182 184
327 336 323 322 320 314 284 282 298 301 300 295 289 290 293 291 288 292 290 296 298 286 284 288 282 271 276 286 266 260 259 255 250 223 204 189 183 182
3 358 0 338 314 298 301 308 311 313 320 319 309 306 303 303 300 301 298 295 296 300 296 288 282 282 287 288 273 269 266 263 227 216 184 173 166 174
14 40 31 321 344 334 335 341 327 340 333 325 317 310 307 305 307 308 308 302 304 309 314 296 294 291 287 294 295 296 277 216 178 166 161 163 162 161
43 52 47 38 33 34 41 16 14 351 360 354 350 344 340 335 332 326 315 319 318 315 310 297 284 274 280 301 309 233 183 173 170 171 158 158 157 161
35 16 26 29 28 27 25 23 359 355 15 358 352 6 1 358 0 358 349 353 351 358 352 325 284 262 157 170 166 171 179 192 164 159 157 157 163 160
33 18 3 20 27 27 25 19 36 39 26 11 16 7 8 10 15 19 18 11 9 7 324 298 274 257 204 172 175 177 171 159 159 161 163 163 160 150
33 3 11 30 31 27 28 32 39 27 31 16 16 7 21 20 27 32 18 27 23 14 3 336 268 260 211 169 156 162 157 163 166 167 164 160 157 151
62 41 41 40 28 19 14 26 28 9 26 14 13 16 12 30 32 21 18 22 25 23 28 38 33 230 216 170 156 160 159 159 170 166 164 158 154 156
17 8 14 24 31 17 22 15 11 16 15 21 15 358 24 24 56 44 37 24 39 36 44 48 53 69 160 158 155 155 159 161 174 166 158 152 161 166
38 31 8 8 21 10 2 10 7 13 6 19 5 26 21 39 32 51 38 43 41 51 61 65 71 88 117 135 144 151 160 169 168 158 156 160 170 169
37 13 355 6 351 3 360 354 5 351 351 21 15 27 43 33 42 34 28 48 61 48 86 84 86 111 121 136 153 159 163 162 165 167 162 181 191 180
320 287 1 350 353 358 357 357 347 341 344 358 23 7 37 38 43 31 36 42 59 75 80 91 102 110 154 157 169 198 196 176 172 177 177 177 189 175
357 327 347 339 348 337 356 355 353 346 337 326 10 359 32 356 21 47 23 64 73 65 46 63 70 99 127 139 139 148 160 171 176 179 198 205 190 191
358 344 352 347 8 15 339 339 358 342 353 13 351 355 360 6 25 28 24 84 56 61 59 78 99 96 121 121 125 150 154 171 200 205 200 191 187 196
352 351 350 332 333 326 324 337 356 352 343 353 356 346 8 43 17 355 60 132 3 45 89 91 96 127 119 106 115 145 160 183 198 196 204 197 232 227
339 345 340 337 303 356 351 311 348 353 350 347 360 338 339 328 131 29 56 118 5 112 105 101 133 136 122 156 132 134 161 180 188 210 223 226 239 247
Wind_Speed_850mb
24 29 26 21 30 26 25 28 29 38 45 41 38 17 15 26 22 24 27 36 43 42 49 53 51 50 50 52 54 58 60 61 64 66 63 58 61 60
26 32 34 34 39 41 37 38 35 36 45 46 45 28 16 20 12 25 31 36 45 49 47 51 56 55 54 53 54 55 57 59 58 63 66 60 59 52
29 28 28 31 35 38 39 38 34 37 44 40 33 35 26 29 28 32 31 36 36 47 51 44 48 59 53 56 55 56 57 60 60 57 65 62 55 53
16 23 24 24 31 35 35 39 42 41 44 44 42 43 27 44 43 54 44 47 45 51 57 51 50 54 53 61 60 58 57 58 63 61 63 62 54 53
27 29 27 29 33 33 40 33 29 30 36 37 39 40 47 53 55 53 53 51 52 54 55 53 52 56 58 57 62 63 65 66 67 72 66 58 56 51
23 20 25 30 32 34 31 31 32 38 39 39 40 47 43 45 57 61 50 34 35 36 43 46 52 53 52 60 62 70 74 71 68 64 65 60 65 65
17 14 15 23 24 26 31 29 25 32 33 32 36 35 36 36 34 35 39 41 42 45 48 48 44 48 51 54 57 64 67 68 62 61 84 92 81 78
12 14 14 15 13 14 16 24 30 32 32 28 33 32 31 33 33 39 36 37 40 35 41 36 39 38 46 47 40 41 47 54 57 79 102 95 85 72
14 16 17 18 15 16 19 19 20 21 21 21 23 26 30 29 35 39 36 36 38 40 40 38 37 41 45 38 34 38 39 44 69 100 96 80 68 62
11 8 7 14 18 14 8 13 14 13 19 19 18 24 27 29 28 26 29 31 31 28 23 29 34 36 36 36 34 28 23 53 84 70 66 57 56 56
24 27 23 24 25 20 22 24 14 14 17 20 23 22 24 25 25 23 23 26 30 27 27 27 27 25 17 16 7 8 51 66 40 45 61 60 57 45
22 30 26 25 25 24 19 14 14 14 17 21 27 22 25 21 18 17 19 19 22 17 18 20 30 27 16 24 33 40 32 29 54 60 60 56 48 41
15 10 21 22 24 25 25 23 16 17 16 17 17 18 20 23 22 24 25 22 25 21 25 23 29 26 19 39 33 34 48 65 62 59 52 48 42 33
11 12 20 23 27 33 35 30 25 18 15 10 13 22 20 23 26 32 35 24 27 33 34 15 18 24 32 47 53 56 56 57 57 50 47 41 34 32
18 33 31 35 30 30 26 31 28 22 13 15 17 17 18 23 24 26 28 29 27 38 40 28 15 15 27 56 62 66 52 42 46 41 38 33 32 29
19 24 25 25 17 18 31 19 19 16 17 14 16 21 22 15 16 19 26 26 35 38 42 50 41 13 28 36 51 55 43 30 42 35 33 33 30 26
11 12 19 20 21 19 16 19 15 16 15 16 15 18 21 23 21 22 19 23 29 30 30 37 32 29 35 42 49 42 42 32 34 38 40 31 26 18
10 12 15 18 17 16 19 18 12 13 14 11 14 15 18 17 18 16 22 24 24 25 22 23 20 26 28 29 22 35 33 29 39 40 36 20 20 16
13 3 11 12 19 21 17 17 19 12 14 7 7 10 10 11 15 22 21 16 21 24 27 22 19 20 25 27 26 21 28 35 38 40 29 19 20 17
18 9 11 19 19 16 14 16 17 13 9 8 8 8 10 8 9 15 13 16 17 15 16 18 13 15 23 28 26 26 31 33 36 30 22 16 13 17
15 17 11 19 13 12 18 23 13 13 6 5 7 6 6 6 8 9 13 7 9 9 13 15 17 20 18 22 23 20 20 19 21 19 15 15 11 13
14 16 14 17 16 15 16 21 13 13 10 6 6 5 6 5 4 3 8 3 9 9 13 11 11 12 16 14 13 11 13 9 12 15 23 20 16 17
11 14 15 16 10 7 10 7 15 10 10 7 6 4 6 2 3 1 6 1 6 7 6 8 9 19 11 10 10 14 9 9 9 9 18 26 28 16
Wind_Direction_850mb
265 270 263 271 264 270 260 263 264 273 278 285 261 278 257 209 245 260 262 261 270 267 260 256 255 255 254 252 251 251 252 255 256 252 246 245 246 250
266 267 267 261 262 265 266 258 256 260 270 279 302 287 294 272 239 273 275 260 261 268 267 262 257 254 254 253 254 254 254 255 258 253 243 243 242 247
281 277 278 280 279 274 265 262 251 251 257 269 282 303 310 294 290 273 266 273 269 275 276 277 273 266 260 258 257 257 258 255 254 251 242 239 239 237
262 281 285 280 276 285 278 266 260 256 259 269 271 278 298 305 289 280 273 257 258 274 268 269 268 262 263 260 259 259 261 260 255 250 238 232 233 227
284 281 278 274 275 270 262 266 266 262 262 266 273 273 264 279 299 295 285 279 274 262 272 263 264 268 260 262 260 256 261 264 261 247 230 223 214 191
280 282 287 286 285 269 259 267 278 274 275 276 276 269 274 290 291 286 284 286 277 263 258 258 262 261 265 265 261 255 257 259 259 263 215 212 179 177
321 309 304 293 302 277 263 270 282 293 289 278 280 281 280 283 284 286 289 288 286 283 279 276 278 274 277 277 266 260 258 255 253 260 203 188 182 184
327 336 323 322 320 314 284 282 298 301 300 295 289 290 293 291 288 292 290 296 298 286 284 288 282 271 276 286 266 260 259 255 250 223 204 189 183 182
3 358 0 338 314 298 301 308 311 313 320 319 309 306 303 303 300 301 298 295 296 300 296 288 282 282 287 288 273 269 266 263 227 216 184 173 166 174
14 40 31 321 344 334 335 341 327 340 333 325 317 310 307 305 307 308 308 302 304 309 314 296 294 291 287 294 295 296 277 216 178 166 161 163 162 161
43 52 47 38 33 34 41 16 14 351 360 354 350 344 340 335 332 326 315 319 318 315 310 297 284 274 280 301 309 233 183 173 170 171 158 158 157 161
35 16 26 29 28 27 25 23 359 355 15 358 352 6 1 358 0 358 349 353 351 358 352 325 284 262 157 170 166 171 179 192 164 159 157 157 163 160
33 18 3 20 27 27 25 19 36 39 26 11 16 7 8 10 15 19 18 11 9 7 324 298 274 257 204 172 175 177 171 159 159 161 163 163 160 150
33 3 11 30 31 27 28 32 39 27 31 16 16 7 21 20 27 32 18 27 23 14 3 336 268 260 211 169 156 162 157 163 166 167 164 160 157 151
62 41 41 40 28 19 14 26 28 9 26 14 13 16 12 30 32 21 18 22 25 23 28 38 33 230 216 170 156 160 159 159 170 166 164 158 154 156
17 8 14 24 31 17 22 15 11 16 15 21 15 358 24 24 56 44 37 24 39 36 44 48 53 69 160 158 155 155 159 161 174 166 158 152 161 166
38 31 8 8 21 10 2 10 7 13 6 19 5 26 21 39 32 51 38 43 41 51 61 65 71 88 117 135 144 151 160 169 168 158 156 160 170 169
37 13 355 6 351 3 360 354 5 351 351 21 15 27 43 33 42 34 28 48 61 48 86 84 86 111 121 136 153 159 163 162 165 167 162 181 191 180
320 287 1 350 353 358 357 357 347 341 344 358 23 7 37 38 43 31 36 42 59 75 80 91 102 110 154 157 169 198 196 176 172 177 177 177 189 175
357 327 347 339 348 337 356 355 353 346 337 326 10 359 32 356 21 47 23 64 73 65 46 63 70 99 127 139 139 148 160 171 176 179 198 205 190 191
358 344 352 347 8 15 339 339 358 342 353 13 351 355 360 6 25 28 24 84 56 61 59 78 99 96 121 121 125 150 154 171 200 205 200 191 187 196
352 351 350 332 333 326 324 337 356 352 343 353 356 346 8 43 17 355 60 132 3 45 89 91 96 127 119 106 115 145 160 183 198 196 204 197 232 227
339 345 340 337 303 356 351 311 348 353 350 347 360 338 339 328 131 29 56 118 5 112 105 101 133 136 122 156 132 134 161 180 188 210 223 226 239 247